GW3329 Weather Reports


time (UTC)temp
F
wind
direction
speed
knots
gust
knots
rain 1hr
in
rain 24hr
in
rain mn
in
humidity
%
barometer
mb
20260504045802 55 162 2.6 7.0 0.00 0.00 0.00 86 1019.1
20260504045256 55 236 1.7 5.2 0.00 0.00 0.00 86 1018.8
20260504044754 55 210 1.7 5.2 0.00 0.00 0.00 85 1018.9
20260504044252 55 153 0.0 2.6 0.00 0.00 0.00 85 1018.7
20260504043749 55 161 0.0 0.9 0.00 0.00 0.00 85 1018.4
20260504043245 55 237 2.6 3.5 0.00 0.00 0.00 85 1018.3
20260504042743 55 179 0.9 1.7 0.00 0.00 0.00 85 1018.5
20260504042240 55 195 1.7 3.5 0.00 0.00 0.00 85 1018.2
20260504041736 55 178 2.6 2.6 0.00 0.00 0.00 85 1018.4
20260504041232 55 155 0.0 0.9 0.00 0.00 0.00 84 1018.5
20260504040728 55 182 2.6 2.6 0.00 0.00 0.00 84 1018.0
20260504040226 55 197 0.9 2.6 0.00 0.00 0.00 83 1018.1
20260504035722 55 178 3.5 5.2 0.00 0.00 0.00 83 1018.0
20260504035219 55 186 1.7 2.6 0.00 0.00 0.00 83 1018.0
20260504034717 55 182 1.7 3.5 0.00 0.00 0.00 82 1018.0
20260504034214 55 232 0.9 5.2 0.00 0.00 0.00 83 1017.9
20260504033711 55 193 1.7 1.7 0.00 0.00 0.00 83 1018.0
20260504033208 55 153 0.9 1.7 0.00 0.00 0.00 84 1018.0
20260504032705 55 159 1.7 2.6 0.00 0.00 0.00 85 1017.8
20260504032203 56 175 0.9 3.5 0.00 0.00 0.00 85 1017.8
20260504031659 56 168 0.9 0.9 0.00 0.00 0.00 85 1017.9
20260504031155 56 168 0.0 2.6 0.00 0.00 0.00 85 1017.6
20260504030652 56 201 1.7 3.5 0.00 0.00 0.00 85 1017.6
20260504030149 56 174 1.7 1.7 0.00 0.00 0.00 85 1017.7
20260504025646 56 166 1.7 2.6 0.00 0.00 0.00 85 1017.8
20260504025143 56 179 0.9 1.7 0.00 0.00 0.00 85 1017.5
20260504024640 56 203 2.6 2.6 0.00 0.00 0.00 85 1017.6
20260504024136 56 166 0.9 3.5 0.00 0.00 0.00 84 1017.4
20260504023633 56 175 0.9 1.7 0.00 0.00 0.00 84 1017.3
20260504023130 56 203 0.9 3.5 0.00 0.00 0.00 84 1017.8
20260504022626 56 180 0.9 3.5 0.00 0.00 0.00 84 1017.5
20260504022122 56 206 1.7 6.1 0.00 0.00 0.00 83 1017.5
20260504021620 56 180 2.6 3.5 0.00 0.00 0.00 83 1017.2
20260504021116 56 205 1.7 3.5 0.00 0.00 0.00 83 1017.3
20260504020613 56 207 0.0 2.6 0.00 0.00 0.00 83 1017.3
20260504020109 57 220 2.6 2.6 0.00 0.00 0.00 82 1017.5
20260504015606 57 289 1.7 3.5 0.00 0.00 0.00 82 1017.5
20260504015102 57 308 1.7 6.1 0.00 0.00 0.00 82 1017.5
20260504014558 57 250 0.9 6.1 0.00 0.00 0.00 83 1017.2
20260504014055 57 182 0.9 5.2 0.00 0.00 0.00 83 1017.1
20260504013553 57 213 2.6 3.5 0.00 0.00 0.00 82 1017.0
20260504013050 58 217 1.7 5.2 0.00 0.00 0.00 79 1016.9
20260504012547 58 201 1.7 5.2 0.00 0.00 0.00 78 1017.3
20260504012045 58 209 0.9 6.1 0.00 0.00 0.00 77 1017.0
20260504011542 58 242 1.7 2.6 0.00 0.00 0.00 75 1017.1
20260504011038 58 305 1.7 8.7 0.00 0.00 0.00 74 1017.0
20260504010533 59 86 0.9 2.6 0.00 0.00 0.00 72 1017.2
20260504010030 59 153 1.7 7.0 0.00 0.00 0.00 71 1017.1
20260504005526 59 28 0.9 7.8 0.00 0.00 0.00 70 1016.9
20260504005024 60 194 1.7 2.6 0.00 0.00 0.00 69 1016.9
20260504004522 60 208 0.0 7.0 0.00 0.00 0.00 68 1016.9
20260504004019 61 212 0.9 3.5 0.00 0.00 0.00 67 1016.6
20260504003515 61 207 1.7 2.6 0.00 0.00 0.00 67 1016.5
20260504003012 61 251 2.6 5.2 0.00 0.00 0.00 67 1016.6
20260504002509 62 5 0.9 1.7 0.00 0.00 0.00 68 1016.5
20260504002006 62 172 1.7 1.7 0.00 0.00 0.00 68 1016.7
20260504001504 62 261 3.5 7.0 0.00 0.00 0.00 67 1016.5
20260504001000 62 113 1.7 1.7 0.00 0.00 0.00 66 1016.7
20260504000457 62 231 2.6 3.5 0.00 0.00 0.00 67 1016.7
20260503235954 63 216 1.7 3.5 0.00 0.00 0.00 67 1016.6
20260503235452 63 189 0.9 3.5 0.00 0.00 0.00 67 1016.5
20260503234949 63 26 1.7 1.7 0.00 0.00 0.00 67 1016.6
20260503234446 63 242 0.9 1.7 0.00 0.00 0.00 67 1016.6
20260503233944 63 289 2.6 3.5 0.00 0.00 0.00 66 1016.5
20260503233440 64 161 0.9 1.7 0.00 0.00 0.00 66 1016.3
20260503232937 63 214 0.9 1.7 0.00 0.00 0.00 65 1016.5
20260503232434 63 227 0.9 5.2 0.00 0.00 0.00 65 1016.7
20260503231932 64 283 1.7 5.2 0.00 0.00 0.00 63 1016.9
20260503231429 64 209 3.5 5.2 0.00 0.00 0.00 63 1016.6
20260503230925 64 224 3.5 3.5 0.00 0.00 0.00 64 1016.9
20260503230421 63 258 1.7 6.1 0.00 0.00 0.00 65 1017.0
20260503225920 62 281 1.7 1.7 0.00 0.00 0.00 68 1017.0
20260503225416 62 165 1.7 3.5 0.00 0.00 0.00 68 1016.8
20260503224912 62 48 0.9 2.6 0.00 0.00 0.00 68 1016.8
20260503224409 62 183 0.9 1.7 0.00 0.00 0.00 67 1016.9
20260503223907 62 189 1.7 3.5 0.00 0.00 0.00 68 1017.0
20260503223405 62 24 1.7 3.5 0.00 0.00 0.00 68 1017.1
20260503222859 62 210 2.6 6.1 0.00 0.00 0.00 68 1017.3
20260503222359 62 167 1.7 3.5 0.00 0.00 0.00 67 1017.5
20260503221856 62 162 1.7 3.5 0.00 0.00 0.00 68 1017.5
20260503221355 62 232 0.9 7.0 0.00 0.00 0.00 67 1017.3
20260503220850 63 153 1.7 3.5 0.00 0.00 0.00 66 1017.4
20260503220347 63 159 0.0 2.6 0.00 0.00 0.00 67 1017.5
20260503215844 63 215 0.9 3.5 0.00 0.00 0.00 68 1017.6
20260503215341 63 130 0.0 6.1 0.00 0.00 0.00 67 1017.5
20260503214839 62 153 0.9 3.5 0.00 0.00 0.00 68 1017.6
20260503214336 62 162 0.0 3.5 0.00 0.00 0.00 68 1017.4
20260503213833 62 51 0.9 3.5 0.00 0.00 0.00 69 1017.6
20260503213331 62 127 0.0 1.7 0.00 0.00 0.00 69 1017.6
20260503212828 62 96 0.0 2.6 0.00 0.00 0.00 69 1017.7
20260503212326 62 229 1.7 1.7 0.00 0.00 0.00 67 1017.6
20260503211823 62 80 0.0 0.9 0.00 0.00 0.00 69 1017.6
20260503211319 61 60 0.9 3.5 0.00 0.00 0.00 69 1017.6
20260503210819 60 98 0.9 0.9 0.00 0.00 0.00 71 1017.7
20260503210317 60 79 0.9 2.6 0.00 0.00 0.00 71 1017.8
20260503205812 60 273 0.9 2.6 0.00 0.00 0.00 71 1017.8
20260503205309 60 108 0.9 0.9 0.00 0.00 0.00 72 1017.8
20260503204805 60 137 0.9 0.9 0.00 0.00 0.00 73 1018.0
20260503204303 60 215 1.7 3.5 0.00 0.00 0.00 73 1017.8
20260503203800 60 215 0.0 5.2 0.00 0.00 0.00 75 1017.8
20260503203257 60 287 0.9 3.5 0.00 0.00 0.00 74 1017.8
20260503202754 60 35 0.9 1.7 0.00 0.00 0.00 75 1017.6
20260503202252 60 67 0.9 2.6 0.00 0.00 0.00 76 1017.7
20260503201750 60 265 1.7 2.6 0.00 0.00 0.00 76 1017.8
20260503201247 60 270 2.6 6.1 0.00 0.00 0.00 77 1017.8
20260503200744 60 294 5.2 7.0 0.00 0.00 0.00 77 1017.9
20260503200240 60 199 0.9 1.7 0.00 0.00 0.00 77 1017.9
20260503195737 60 241 3.5 5.2 0.00 0.00 0.00 77 1017.8
20260503195234 60 222 4.3 6.1 0.00 0.00 0.00 76 1018.0
20260503194732 61 157 0.0 1.7 0.00 0.00 0.00 76 1018.0
20260503194227 60 218 0.9 5.2 0.00 0.00 0.00 75 1018.0
20260503193723 60 305 0.9 3.5 0.00 0.00 0.00 76 1018.0
20260503193219 60 79 0.0 3.5 0.00 0.00 0.00 76 1017.9
20260503192715 60 167 1.7 2.6 0.00 0.00 0.00 76 1017.9
20260503192210 60 209 0.9 2.6 0.00 0.00 0.00 75 1018.1
20260503191708 61 301 3.5 6.1 0.00 0.00 0.00 75 1018.1
20260503191205 61 232 1.7 3.5 0.00 0.00 0.00 74 1018.0
20260503190701 62 349 1.7 1.7 0.00 0.00 0.00 70 1017.9
20260503190158 62 200 0.9 1.7 0.00 0.00 0.00 70 1017.9
20260503185655 62 356 0.9 1.7 0.00 0.00 0.00 71 1018.0
20260503185150 62 320 0.9 2.6 0.00 0.00 0.00 72 1018.1
20260503184645 62 74 0.0 1.7 0.00 0.00 0.00 72 1017.9
20260503184142 61 98 0.9 1.7 0.00 0.00 0.00 72 1018.2
20260503183638 62 148 0.0 0.9 0.00 0.00 0.00 71 1017.9
20260503183136 61 119 1.7 2.6 0.00 0.00 0.00 73 1018.1
20260503182634 60 132 0.0 1.7 0.00 0.00 0.00 75 1018.3
20260503182132 60 145 0.9 0.9 0.00 0.00 0.00 75 1018.2
20260503181629 60 113 0.9 2.6 0.00 0.00 0.00 76 1018.3
20260503181126 60 149 2.6 5.2 0.00 0.00 0.00 75 1018.3
20260503180622 60 239 1.7 1.7 0.00 0.00 0.00 76 1018.1
20260503180120 59 177 0.9 0.9 0.00 0.00 0.00 77 1018.4
20260503175617 59 70 0.0 0.0 0.00 0.00 0.00 78 1018.4
20260503175114 59 114 0.0 1.7 0.00 0.00 0.00 79 1018.3
20260503174611 59 110 0.9 1.7 0.00 0.00 0.00 79 1018.5
20260503174108 59 106 0.0 0.0 0.00 0.00 0.00 78 1018.4
20260503173603 59 73 0.0 0.9 0.00 0.00 0.00 79 1018.3
20260503173059 59 97 0.0 0.9 0.00 0.00 0.00 79 1018.5
20260503172551 59 93 0.0 0.9 0.00 0.00 0.00 79 1018.4
20260503172048 59 196 0.0 0.9 0.00 0.00 0.00 79 1018.3
20260503171544 58 181 0.0 0.9 0.00 0.00 0.00 80 1018.4
20260503171042 58 221 0.9 1.7 0.00 0.00 0.00 80 1018.5
20260503170538 57 185 0.0 0.9 0.00 0.00 0.00 81 1018.3
20260503150931 56 182 2.6 3.5 0.00 0.00 0.00 84 1018.0
20260503150427 56 149 0.0 0.0 0.00 0.00 0.00 85 1017.7
20260503131320 54 167 0.0 0.0 0.00 0.00 0.00 97 1016.4
20260503130818 54 169 0.0 0.0 0.00 0.00 0.00 97 1016.4
20260503130315 54 172 0.0 0.0 0.00 0.00 0.00 98 1016.4
20260503110709 55 181 0.0 0.0 0.00 0.00 0.00 98 1016.7
20260503110206 55 187 0.0 0.0 0.00 0.00 0.00 98 1016.8
20260503100132 55 128 0.0 0.0 0.00 0.00 0.00 98 1016.4
20260503081522 55 183 0.0 1.7 0.00 0.00 0.00 96 1017.2
20260503081019 55 171 0.0 1.7 0.00 0.00 0.00 96 1017.0
20260503080515 56 181 0.0 0.9 0.00 0.00 0.00 96 1017.0
20260503072449 56 165 0.0 1.7 0.00 0.00 0.00 96 1017.0
20260503071946 56 219 0.9 5.2 0.00 0.00 0.00 96 1016.7
20260503071443 56 200 0.9 0.9 0.00 0.00 0.00 95 1016.7
20260503070938 56 162 0.0 1.7 0.00 0.00 0.00 95 1016.8
20260503070436 56 177 0.0 0.0 0.00 0.00 0.00 95 1016.4
20260503054849 57 187 0.0 1.7 0.00 0.00 0.00 95 1016.7
20260503054345 56 246 0.9 1.7 0.00 0.00 0.00 95 1016.5
20260503053843 57 166 0.0 0.9 0.00 0.00 0.00 95 1016.8
20260503053341 57 168 0.0 0.9 0.00 0.00 0.00 95 1016.6
20260503052837 57 185 0.0 1.7 0.00 0.00 0.00 95 1016.5
20260503052334 57 170 0.0 0.9 0.00 0.00 0.00 95 1016.7
20260503051831 57 186 0.9 1.7 0.00 0.00 0.00 94 1016.8
20260503051327 57 161 0.0 2.6 0.00 0.00 0.00 94 1016.9
20260503050824 57 212 0.0 0.0 0.00 0.00 0.00 94 1016.5
20260503050320 57 142 0.0 0.0 0.00 0.00 0.00 95 1016.6